Tracking 22873 objects as of 23-Apr-2021
HD Live streaming from Space Station
objects crossing your sky now

GALAXY 9

Track GALAXY 9 now!
GALAXY 9 is classified as:


NORAD ID: 23877
Int'l Code: 1996-033A
Perigee: 35,971.0 km
Apogee: 36,031.3 km
Inclination: 9.0 °
Period: 1,446.7 minutes
Semi major axis: 42372 km
RCS: 8.797 m2 (large)
Launch date: May 24, 1996
Source: United States (US)
Launch site: AIR FORCE EASTERN TEST RANGE (AFETR)

Voice and vision communication; 24 C-band; North America, Caribbean.
aabbcc
Your satellite tracking list
Your tracking list is empty




NASA's NSSDC Master Catalog

Two Line Element Set (TLE):
1 23877U 96033A   21112.54053794  .00000048  00000-0  00000-0 0  9994
2 23877   9.0446  44.7713 0007119  78.4559 166.9590  0.99536348 27624
Source of the keplerian elements: AFSPC